Location: Augsburg
(48.3836°N, 10.8929°E)
Time: 11:29:41
(UTC+01:00)

ISS - Pass Details

Date: 14 February 2018
Orbit: 403 x 407 km, 51.6° (Epoch: 22 February)

Event Time Altitude Azimuth Distance (km) Brightness Sun altitude
Rises 18:24:48 0° 282° (WNW) 2,320 1.5 -8.6°
Reaches altitude 10° 18:27:51 10° 250° (WSW) 1,456 0.6 -9.1°
Maximum altitude 18:29:14 12° 225° (SW) 1,327 -0.4 -9.4°
Drops below altitude 10° 18:30:38 10° 200° (SSW) 1,452 -0.6 -9.6°
Sets 18:33:41 0° 168° (SSE) 2,306 0.0 -10.1°
